Time,TemperatureF,DewpointF,PressureIn,WindDirection,WindDirectionDegrees,WindSpeedMPH,WindSpeedGustMPH,Humidity,HourlyPrecipIn,Conditions,Clouds,dailyrainin,SolarRadiationWatts/m^2,SoftwareType,DateUTC
2013-07-24 00:00:00,76.8,72.3,29.83,North,360,2.0,3.0,86,0.00,,SCT,0.00,0.00,VWS V14.01,2013-07-24 04:00:00,
2013-07-24 01:00:00,76.9,69.9,29.84,North,360,1.0,4.0,79,0.00,,SCT,0.00,0.00,VWS V14.01,2013-07-24 05:00:00,
2013-07-24 02:00:00,74.7,70.6,29.82,East,85,0.0,4.0,87,0.00,,SCT,0.00,0.00,VWS V14.01,2013-07-24 06:00:00,
2013-07-24 03:00:00,74.8,68.9,29.80,NNE,22,0.0,5.0,82,0.00,,SCT,0.00,0.00,VWS V14.01,2013-07-24 07:00:00,
2013-07-24 04:00:00,74.3,68.5,29.79,North,5,0.0,4.0,82,0.00,,SCT,0.00,0.00,VWS V14.01,2013-07-24 08:00:00,
2013-07-24 05:00:00,74.2,68.7,29.79,NNW,340,0.0,4.0,83,0.00,,SCT,0.00,0.00,VWS V14.01,2013-07-24 09:00:00,
2013-07-24 06:00:00,71.0,68.6,29.81,ESE,109,2.0,6.0,92,0.00,,SCT,0.00,0.00,VWS V14.01,2013-07-24 10:00:00,
2013-07-24 07:00:00,73.2,69.4,29.82,NNE,13,0.0,4.0,88,0.00,,SCT,0.00,23.00,VWS V14.01,2013-07-24 11:00:00,
2013-07-24 08:00:00,74.4,70.9,29.84,NNE,13,0.0,2.0,89,0.00,,SCT,0.00,98.00,VWS V14.01,2013-07-24 12:00:00,
2013-07-24 09:00:00,79.7,71.5,29.86,ENE,61,0.0,6.0,76,0.00,,SCT,0.00,246.00,VWS V14.01,2013-07-24 13:00:00,
2013-07-24 10:00:00,81.2,72.9,29.88,NW,319,0.0,7.0,76,0.00,,SCT,0.00,229.00,VWS V14.01,2013-07-24 14:00:00,
2013-07-24 11:00:00,82.0,71.7,29.89,SSE,150,0.0,7.0,71,0.00,,SCT,0.00,501.00,VWS V14.01,2013-07-24 15:00:00,
2013-07-24 12:00:00,82.3,71.5,29.90,SW,229,4.0,8.0,70,0.00,,SCT,0.00,1005.00,VWS V14.01,2013-07-24 16:00:00,
2013-07-24 13:00:00,82.0,72.1,29.90,WSW,242,7.0,11.0,72,0.00,,SCT,0.00,875.00,VWS V14.01,2013-07-24 17:00:00,
2013-07-24 14:00:00,83.8,70.3,29.88,WSW,254,7.0,9.0,64,0.01,,SCT,0.01,754.00,VWS V14.01,2013-07-24 18:00:00,
2013-07-24 14:10:00,84.6,70.6,29.88,SW,219,3.0,9.0,63,0.01,,SCT,0.01,940.00,VWS V14.01,2013-07-24 18:10:00,
2013-07-24 14:15:00,84.7,69.8,29.87,SW,217,6.0,9.0,61,0.01,,SCT,0.01,863.00,VWS V14.01,2013-07-24 18:15:00,
2013-07-24 14:20:00,84.3,71.3,29.87,SW,229,6.0,11.0,65,0.01,,SCT,0.01,362.00,VWS V14.01,2013-07-24 18:20:00,
2013-07-24 14:25:00,83.8,70.3,29.87,WSW,248,4.0,11.0,64,0.01,,SCT,0.01,258.00,VWS V14.01,2013-07-24 18:25:00,
2013-07-24 14:30:00,83.9,70.4,29.87,WNW,302,0.0,11.0,64,0.01,,SCT,0.01,202.00,VWS V14.01,2013-07-24 18:30:00,
2013-07-24 14:35:00,83.6,72.4,29.88,WSW,258,7.0,11.0,69,0.01,,SCT,0.01,229.00,VWS V14.01,2013-07-24 18:35:00,
2013-07-24 14:40:00,83.2,72.0,29.88,West,261,7.0,11.0,69,0.01,,SCT,0.01,214.00,VWS V14.01,2013-07-24 18:40:00,
2013-07-24 14:45:00,82.9,71.3,29.88,WSW,246,5.0,11.0,68,0.01,,SCT,0.01,114.00,VWS V14.01,2013-07-24 18:45:00,
2013-07-24 14:50:00,82.6,71.4,29.88,SSW,212,5.0,11.0,69,0.01,,SCT,0.01,63.00,VWS V14.01,2013-07-24 18:50:00,
2013-07-24 14:55:00,82.4,71.6,29.88,South,170,9.0,13.0,70,0.00,,SCT,0.01,33.00,VWS V14.01,2013-07-24 18:55:00,
2013-07-24 15:00:00,81.9,71.6,29.88,South,169,6.0,13.0,71,0.00,,SCT,0.01,35.00,VWS V14.01,2013-07-24 19:00:00,
2013-07-24 15:05:00,80.7,71.2,29.88,SW,220,5.0,13.0,73,0.00,,SCT,0.01,60.00,VWS V14.01,2013-07-24 19:05:00,
2013-07-24 15:10:00,79.4,72.3,29.88,WSW,246,5.0,13.0,79,0.00,,SCT,0.01,51.00,VWS V14.01,2013-07-24 19:10:00,
2013-07-24 15:15:00,78.1,71.4,29.89,WSW,246,8.0,17.0,80,0.00,,SCT,0.01,83.00,VWS V14.01,2013-07-24 19:15:00,
2013-07-24 15:20:00,76.4,70.9,29.89,WSW,256,8.0,17.0,83,0.00,,SCT,0.01,93.00,VWS V14.01,2013-07-24 19:20:00,
2013-07-24 15:25:00,75.5,70.3,29.89,West,275,5.0,17.0,84,0.00,,SCT,0.01,79.00,VWS V14.01,2013-07-24 19:25:00,
2013-07-24 15:30:00,75.5,70.7,29.89,West,260,1.0,17.0,85,0.00,,SCT,0.01,88.00,VWS V14.01,2013-07-24 19:30:00,
2013-07-24 15:35:00,76.0,71.2,29.90,West,260,0.0,17.0,85,0.00,,SCT,0.01,113.00,VWS V14.01,2013-07-24 19:35:00,
2013-07-24 15:40:00,76.3,71.8,29.89,NNW,348,1.0,17.0,86,0.00,,SCT,0.01,111.00,VWS V14.01,2013-07-24 19:40:00,
2013-07-24 15:45:00,76.9,71.0,29.89,NNW,348,0.0,17.0,82,0.00,,SCT,0.01,116.00,VWS V14.01,2013-07-24 19:45:00,
2013-07-24 15:50:00,76.9,71.3,29.89,WSW,251,4.0,17.0,83,0.00,,SCT,0.01,118.00,VWS V14.01,2013-07-24 19:50:00,
2013-07-24 15:55:00,76.6,72.1,29.89,West,271,4.0,5.0,86,0.00,,SCT,0.01,132.00,VWS V14.01,2013-07-24 19:55:00,
2013-07-24 16:00:00,76.3,72.2,29.88,West,271,1.0,6.0,87,0.00,,SCT,0.01,186.00,VWS V14.01,2013-07-24 20:00:00,
2013-07-24 16:05:00,77.3,72.4,29.88,West,271,0.0,6.0,85,0.00,,SCT,0.01,737.00,VWS V14.01,2013-07-24 20:05:00,
2013-07-24 16:10:00,78.5,72.9,29.88,SSW,208,4.0,6.0,83,0.00,,SCT,0.01,671.00,VWS V14.01,2013-07-24 20:10:00,
2013-07-24 16:15:00,79.6,74.3,29.88,SW,229,1.0,6.0,84,0.00,,SCT,0.01,645.00,VWS V14.01,2013-07-24 20:15:00,
2013-07-24 16:20:00,80.1,73.8,29.88,SW,220,4.0,7.0,81,0.00,,SCT,0.01,621.00,VWS V14.01,2013-07-24 20:20:00,
2013-07-24 16:25:00,80.4,74.0,29.88,SW,236,0.0,7.0,81,0.00,,SCT,0.01,606.00,VWS V14.01,2013-07-24 20:25:00,
2013-07-24 16:30:00,80.6,73.9,29.88,WSW,248,3.0,7.0,80,0.00,,SCT,0.01,598.00,VWS V14.01,2013-07-24 20:30:00,
2013-07-24 16:35:00,80.6,73.9,29.88,WSW,248,3.0,7.0,80,0.00,,SCT,0.01,598.00,VWS V14.01,2013-07-24 20:35:00,
2013-07-24 16:40:00,81.2,73.3,29.88,WSW,247,8.0,10.0,77,0.00,,SCT,0.01,577.00,VWS V14.01,2013-07-24 20:40:00,
2013-07-24 16:45:00,81.1,72.8,29.88,West,263,9.0,11.0,76,0.00,,SCT,0.01,250.00,VWS V14.01,2013-07-24 20:45:00,
2013-07-24 16:50:00,80.9,72.2,29.88,WSW,258,5.0,11.0,75,0.00,,SCT,0.01,570.00,VWS V14.01,2013-07-24 20:50:00,
2013-07-24 16:55:00,80.9,72.6,29.88,WSW,253,8.0,10.0,76,0.00,,SCT,0.01,469.00,VWS V14.01,2013-07-24 20:55:00,
2013-07-24 17:00:00,81.0,72.7,29.88,WSW,251,6.0,10.0,76,0.00,,SCT,0.01,548.00,VWS V14.01,2013-07-24 21:00:00,
2013-07-24 17:05:00,81.2,72.9,29.88,SW,232,8.0,11.0,76,0.00,,SCT,0.01,534.00,VWS V14.01,2013-07-24 21:05:00,
2013-07-24 17:10:00,81.2,72.1,29.88,West,264,6.0,11.0,74,0.00,,SCT,0.01,427.00,VWS V14.01,2013-07-24 21:10:00,
2013-07-24 17:15:00,81.3,72.2,29.88,WSW,243,8.0,11.0,74,0.00,,SCT,0.01,309.00,VWS V14.01,2013-07-24 21:15:00,
2013-07-24 17:20:00,81.3,72.6,29.88,West,259,4.0,11.0,75,0.00,,SCT,0.01,519.00,VWS V14.01,2013-07-24 21:20:00,
2013-07-24 17:25:00,81.5,72.0,29.89,WSW,242,8.0,11.0,73,0.00,,SCT,0.01,483.00,VWS V14.01,2013-07-24 21:25:00,
2013-07-24 17:30:00,81.4,71.9,29.89,SW,236,6.0,11.0,73,0.00,,SCT,0.01,264.00,VWS V14.01,2013-07-24 21:30:00,
2013-07-24 17:35:00,81.3,71.8,29.89,WSW,247,7.0,11.0,73,0.00,,SCT,0.01,192.00,VWS V14.01,2013-07-24 21:35:00,
2013-07-24 17:40:00,81.1,71.6,29.88,WSW,237,10.0,12.0,73,0.00,,SCT,0.01,373.00,VWS V14.01,2013-07-24 21:40:00,
2013-07-24 18:00:00,80.9,71.4,29.89,WSW,240,10.0,12.0,73,0.00,,SCT,0.01,127.00,VWS V14.01,2013-07-24 22:00:00,
2013-07-24 19:00:00,79.0,71.2,29.90,WSW,238,1.0,12.0,77,0.00,,SCT,0.01,0.00,VWS V14.01,2013-07-24 23:00:00,
2013-07-24 20:00:00,72.9,71.1,29.94,East,96,0.0,21.0,94,0.00,,SCT,0.01,0.00,VWS V14.01,2013-07-25 00:00:00,
2013-07-24 21:00:00,72.8,71.3,29.96,North,5,0.0,5.0,95,0.00,,SCT,0.01,0.00,VWS V14.01,2013-07-25 01:00:00,
2013-07-24 22:00:00,71.6,70.4,29.99,North,5,0.0,1.0,96,0.00,,SCT,0.01,0.00,VWS V14.01,2013-07-25 02:00:00,
2013-07-24 23:00:00,71.8,70.6,30.01,North,9,0.0,1.0,96,0.00,,SCT,0.01,0.00,VWS V14.01,2013-07-25 03:00:00,